Location: Mahannah Oil Field
(37.4664°N, 96.6003°W)
Time: 09:31:27
(UTC+00:00)

Courier 1B - Pass Details

Date: 25 January 2021
Orbit: 962 x 1209 km, 28.3° (Epoch: 02 March)

Event Time Altitude Azimuth Distance (km) Brightness Sun altitude
Rises 08:55:51 0° 262° (W) 3,657 - -54.8°
Reaches altitude 10° 08:58:50 10° 252° (WSW) 2,694 - -54.3°
Maximum altitude 09:04:20 30° 193° (SSW) 1,641 - -53.3°
Drops below altitude 10° 09:09:53 10° 134° (SE) 2,701 - -52.2°
Exits shadow 09:12:41 - 124° (SE) 3,610 10.8 -51.7°
Sets 09:12:52 0° 124° (SE) 3,668 10.8 -51.7°
